Flag for Venezuela Weather past 2 weeks in Valencia, Venezuela

Now
79 °F

Passing clouds.


Feels Like: 81 °F
Forecast: 68 / 85 °F
Wind: 5 mph from Northeast

Location: Valencia Airport

Current Time: Jul 25, 2014 at 11:36:30 PM

Latest Report: Jul 25, 2014 at 10:30 PM


Visibility: N/A

Pressure: 30.01 "Hg

Humidity: 74%

Dew point: 70 °F

Location of ValenciaLocation

Historic Weather in Valencia — Graph

°F

Valencia temperature yesterday

Maximum temperature yesterday: 90 °F (at 2:30 PM)
Minimum temperature yesterday: 75 °F (at 6:30 AM)
Average temperature yesterday: 83 °F

Past Weeks' High & Low Weather Summary

 TemperatureHumidityPressure
High93 °F (Jul 25, 1:30 PM)100% (Jul 16, 5:30 AM)30.12 "Hg (Jul 16, 5:30 AM)
Low72 °F (Jul 12, 3:30 PM)47% (Jul 25, 1:30 PM)29.86 "Hg (Jul 23, 5:30 PM)
Average81 °F74%30.01 "Hg
* Reported Jul 10 9:30 PM — Jul 25 9:30 PM, Valencia, Weather by CustomWeather, © 2014

Note: Actual official high and low records may vary slightly from our data, if they occured in-between our weather recording intervals... More about our weather records

Advertising

Valencia weather history for previous 24 hours

 ConditionsComfort  
Time TempWeatherWind HumidityBarometerVisibility
9:30 PM
Jul 25
79 °FPassing clouds.5 mph74%29.98 "HgN/A
8:30 PM81 °FPassing clouds.5 mph70%29.95 "HgN/A
7:30 PM81 °FPassing clouds.7 mph70%29.92 "HgN/A
6:30 PM84 °FPassing clouds.5 mph62%29.89 "HgN/A
5:30 PM91 °FPartly sunny.7 mph49%29.89 "HgN/A
4:30 PM88 °FPartly sunny.7 mph59%29.89 "HgN/A
3:30 PM90 °FPartly sunny.5 mph49%29.92 "HgN/A
2:30 PM93 °FPartly sunny.5 mph47%29.95 "HgN/A
1:30 PM93 °FScattered clouds.8 mph47%29.98 "HgN/A
12:30 PM91 °FBroken clouds.8 mph49%30.01 "HgN/A
11:30 AM90 °FBroken clouds.10 mph52%30.04 "HgN/A
10:30 AM86 °FBroken clouds.7 mph59%30.04 "HgN/A
9:30 AM84 °FBroken clouds.7 mph62%30.04 "HgN/A
8:30 AM81 °FPartly sunny.6 mph70%30.04 "HgN/A
7:30 AM79 °FPartly sunny.7 mph74%30.04 "HgN/A
6:30 AM77 °FPartly sunny.1 mph79%30.01 "HgN/A
5:30 AM77 °FPassing clouds.6 mph79%30.01 "HgN/A
4:30 AM75 °FClear.3 mph89%29.98 "Hg10 mi
1:30 AM77 °FClear.6 mph83%30.01 "Hg10 mi
Weather by CustomWeather, © 2014

See weather overviewHow to use our weather pages